Hlavní strana
METAR-TAF:

METAR-TAF

Letiště :

Delaware, Ohio, Spojené státy americké

zeměpisná šířka: 40-16-47N, zeměpisná délka: 83-06-53W, výška: 288 m

Aktuální stav počasí

Zpráva byla vytvořena před 19 minutami, v 19:55 UTC
Západní vítr 7 kt, proměnlivý mezi západojihozápadním a severozápadním
Teplota 17°C
Vlhkost vzduchu 36%
Tlak 1019 hPa
Viditelnost: 16.1 km
Jasno

METAR: KDLZ 131955Z AUTO 27007KT 244V314 10SM CLR 17/02 A3009 RMK AO2

Čas: 16:14 (20:14 UTC)


TAF: chybějící

Stav a předpovědi počasí z více než 4 000 letišť (zprávy METAR a TAF).

Červené a žluté tečky na mapě představují dostupné meteorologické stanice.

Když kurzor umístíte na tečku, zobrazí se název stanice.

Pak kliknutím zobrazíte stav a předpověď počasí.

Chcete-li změnit mapu, kliknutím na zelené tlačítko se znaménkem +mapu přiblížíte, kliknutím na zelené tlačítko se znaménkem – mapu oddálíte a kliknutím na zelené šipky přejdete na sousední mapy.


METAR-TAF: